Torna al catalogo

STARLINK-3236

AttivoComunicazioniVLEO
NORAD 49750·PAYLOAD·🇺🇸 United States

Lanciato Dec 2, 2021 da Cape Canaveral Space Force Station

Loading…

Prossimi Passaggi (prossime 24 ore)

TLE

AggiornatoSource: CelesTrak SupGP

Epoca: Sep 15, 2026, 02:26 UTC

1 49750C 21115AC  26258.10187500  .00029860  00000+0  96044-3 0  2588
2 49750  53.1596   4.9552 0000986  92.2178 196.7815 15.31680243    14

Traccia STARLINK-3236 in tempo reale con AllMySat

Download on the App Store